• In Hungary
  • List of Countries
  • For 7 days
  • Water Temperature
  • Satellite Maps
  • Weather Map
  • News
  • Weather Widgets
  • user-avatar
    Login

    Hourly Weather Camas

    Today, 23 September, Sunday

    Time Temperature Precipitation Wind Pressure Humidity
    00:00 +29°C° 0 mm 1 mps 762 mmHg 37%
    01:00 +29°C° 0 mm 1 mps 761 mmHg 38%
    02:00 +28°C° 0 mm 1 mps 761 mmHg 38%
    03:00 +28°C° 0 mm 1 mps 761 mmHg 39%
    04:00 +28°C° 0 mm 1 mps 761 mmHg 39%
    05:00 +27°C° 0 mm 1 mps 761 mmHg 39%
    06:00 +27°C° 0 mm 2 mps 761 mmHg 41%
    07:00 +29°C° 0 mm 2 mps 761 mmHg 37%
    08:00 +31°C° 0 mm 2 mps 761 mmHg 32%
    09:00 +34°C° 0 mm 2 mps 761 mmHg 28%
    10:00 +36°C° 0 mm 2 mps 761 mmHg 26%
    11:00 +38°C° 0 mm 3 mps 761 mmHg 23%
    12:00 +39°C° 0 mm 3 mps 761 mmHg 20%
    13:00 +40°C° 0 mm 3 mps 761 mmHg 19%
    14:00 +40°C° 0 mm 3 mps 760 mmHg 18%
    15:00 +42°C° 0 mm 3 mps 760 mmHg 17%
    16:00 +39°C° 0 mm 3 mps 760 mmHg 19%
    17:00 +38°C° 0 mm 3 mps 760 mmHg 20%
    18:00 +36°C° 0 mm 2 mps 760 mmHg 22%
    19:00 +35°C° 0 mm 2 mps 760 mmHg 25%
    20:00 +32°C° 0 mm 2 mps 760 mmHg 27%
    21:00 +31°C° 0 mm 2 mps 761 mmHg 30%
    22:00 +30°C° 0 mm 1 mps 761 mmHg 31%
    23:00 +29°C° 0 mm 1 mps 761 mmHg 32%

    Tomorrow, 24 September, Monday

    Time Temperature Precipitation Wind Pressure Humidity
    00:00 +29°C° 0 mm 1 mps 760 mmHg 33%
    01:00 +29°C° 0 mm 1 mps 760 mmHg 34%
    02:00 +28°C° 0 mm 1 mps 760 mmHg 35%
    03:00 +28°C° 0 mm 1 mps 760 mmHg 35%
    04:00 +28°C° 0 mm 1 mps 760 mmHg 36%
    05:00 +27°C° 0 mm 1 mps 760 mmHg 36%
    06:00 +27°C° 0 mm 1 mps 760 mmHg 36%
    07:00 +29°C° 0 mm 1 mps 760 mmHg 32%
    08:00 +31°C° 0 mm 2 mps 760 mmHg 29%
    09:00 +34°C° 0 mm 2 mps 761 mmHg 25%
    10:00 +36°C° 0 mm 2 mps 761 mmHg 23%
    11:00 +37°C° 0 mm 2 mps 760 mmHg 21%
    12:00 +39°C° 0 mm 2 mps 760 mmHg 18%
    13:00 +40°C° 0 mm 2 mps 760 mmHg 18%
    14:00 +40°C° 0 mm 2 mps 759 mmHg 17%
    15:00 +41°C° 0 mm 2 mps 759 mmHg 17%
    16:00 +39°C° 0 mm 2 mps 759 mmHg 19%
    17:00 +38°C° 0 mm 2 mps 759 mmHg 21%
    18:00 +37°C° 0 mm 3 mps 758 mmHg 23%
    19:00 +35°C° 0 mm 2 mps 759 mmHg 25%
    20:00 +32°C° 0 mm 2 mps 759 mmHg 28%
    21:00 +31°C° 0 mm 2 mps 760 mmHg 30%
    22:00 +30°C° 0 mm 2 mps 760 mmHg 32%
    23:00 +29°C° 0 mm 1 mps 760 mmHg 33%

    Day after tomorrow, 25 September, Tuesday

    Time Temperature Precipitation Wind Pressure Humidity
    00:00 +29°C° 0 mm 1 mps 760 mmHg 34%
    01:00 +28°C° 0 mm 1 mps 759 mmHg 35%
    02:00 +28°C° 0 mm 1 mps 759 mmHg 36%
    03:00 +28°C° 0 mm 1 mps 759 mmHg 36%
    04:00 +27°C° 0 mm 1 mps 759 mmHg 37%
    05:00 +27°C° 0 mm 1 mps 759 mmHg 37%
    06:00 +27°C° 0 mm 1 mps 760 mmHg 38%
    07:00 +28°C° 0 mm 1 mps 760 mmHg 35%
    08:00 +30°C° 0 mm 1 mps 760 mmHg 32%
    09:00 +32°C° 0 mm 1 mps 761 mmHg 29%
    10:00 +34°C° 0 mm 1 mps 760 mmHg 27%
    11:00 +37°C° 0 mm 2 mps 760 mmHg 24%
    12:00 +38°C° 0 mm 2 mps 760 mmHg 21%
    13:00 +39°C° 0 mm 2 mps 760 mmHg 21%
    14:00 +39°C° 0 mm 2 mps 759 mmHg 20%
    15:00 +40°C° 0 mm 2 mps 759 mmHg 20%
    16:00 +38°C° 0 mm 3 mps 759 mmHg 23%
    17:00 +37°C° 0 mm 3 mps 759 mmHg 27%
    18:00 +35°C° 0 mm 3 mps 759 mmHg 30%
    19:00 +34°C° 0 mm 3 mps 759 mmHg 36%
    20:00 +31°C° 0 mm 3 mps 760 mmHg 42%
    21:00 +29°C° 0 mm 2 mps 761 mmHg 48%
    22:00 +29°C° 0 mm 2 mps 761 mmHg 52%
    23:00 +28°C° 0 mm 2 mps 761 mmHg 55%

    26 September, Wednesday

    Time Temperature Precipitation Wind Pressure Humidity
    00:00 +28°C° 0 mm 1 mps 761 mmHg 58%
    01:00 +27°C° 0 mm 1 mps 761 mmHg 59%
    02:00 +27°C° 0 mm 1 mps 761 mmHg 61%
    03:00 +26°C° 0 mm 1 mps 761 mmHg 62%
    04:00 +26°C° 0 mm 2 mps 761 mmHg 63%
    05:00 +26°C° 0 mm 2 mps 761 mmHg 64%
    06:00 +25°C° 0 mm 2 mps 761 mmHg 65%
    07:00 +27°C° 0 mm 2 mps 761 mmHg 60%
    08:00 +28°C° 0 mm 3 mps 762 mmHg 55%
    09:00 +30°C° 0 mm 3 mps 762 mmHg 50%
    10:00 +31°C° 0 mm 3 mps 762 mmHg 44%
    11:00 +34°C° 0 mm 3 mps 762 mmHg 39%
    12:00 +36°C° 0 mm 3 mps 762 mmHg 33%
    13:00 +36°C° 0 mm 3 mps 761 mmHg 32%
    14:00 +37°C° 0 mm 3 mps 761 mmHg 30%
    15:00 +37°C° 0 mm 3 mps 760 mmHg 28%
    16:00 +36°C° 0 mm 3 mps 760 mmHg 31%
    17:00 +35°C° 0 mm 3 mps 760 mmHg 33%
    18:00 +34°C° 0 mm 3 mps 760 mmHg 36%
    19:00 +33°C° 0 mm 3 mps 761 mmHg 41%
    20:00 +30°C° 0 mm 2 mps 762 mmHg 45%
    21:00 +29°C° 0 mm 2 mps 762 mmHg 50%
    22:00 +28°C° 0 mm 2 mps 762 mmHg 52%
    23:00 +27°C° 0 mm 2 mps 762 mmHg 54%

    27 September, Thursday

    Time Temperature Precipitation Wind Pressure Humidity
    00:00 +27°C° 0 mm 2 mps 762 mmHg 57%
    01:00 +26°C° 0 mm 2 mps 762 mmHg 58%
    02:00 +26°C° 0 mm 2 mps 762 mmHg 60%
    03:00 +26°C° 0 mm 2 mps 762 mmHg 61%
    04:00 +25°C° 0 mm 2 mps 762 mmHg 62%
    05:00 +25°C° 0 mm 2 mps 762 mmHg 64%
    06:00 +25°C° 0 mm 2 mps 762 mmHg 65%
    07:00 +26°C° 0 mm 2 mps 762 mmHg 61%
    08:00 +28°C° 0 mm 2 mps 762 mmHg 57%
    09:00 +29°C° 0 mm 3 mps 763 mmHg 52%
    10:00 +31°C° 0 mm 3 mps 762 mmHg 46%
    11:00 +32°C° 0 mm 2 mps 762 mmHg 40%
    12:00 +35°C° 0 mm 2 mps 762 mmHg 35%
    13:00 +36°C° 0 mm 2 mps 761 mmHg 32%
    14:00 +36°C° 0 mm 2 mps 761 mmHg 30%
    15:00 +37°C° 0 mm 3 mps 760 mmHg 28%
    16:00 +36°C° 0 mm 3 mps 760 mmHg 31%
    17:00 +35°C° 0 mm 3 mps 760 mmHg 34%
    18:00 +34°C° 0 mm 3 mps 760 mmHg 37%
    19:00 +31°C° 0 mm 2 mps 760 mmHg 42%
    20:00 +30°C° 0 mm 2 mps 761 mmHg 47%
    21:00 +28°C° 0 mm 2 mps 761 mmHg 52%
    22:00 +28°C° 0 mm 2 mps 761 mmHg 55%
    23:00 +27°C° 0 mm 1 mps 761 mmHg 58%

    28 September, Friday

    Time Temperature Precipitation Wind Pressure Humidity
    00:00 +27°C° 0 mm 1 mps 761 mmHg 61%
    01:00 +26°C° 0 mm 1 mps 760 mmHg 63%
    02:00 +26°C° 0 mm 1 mps 760 mmHg 66%
    03:00 +25°C° 0 mm 1 mps 760 mmHg 68%
    04:00 +25°C° 0 mm 1 mps 760 mmHg 69%
    05:00 +25°C° 0 mm 1 mps 760 mmHg 70%
    06:00 +24°C° 0 mm 1 mps 760 mmHg 71%
    07:00 +26°C° 0 mm 1 mps 760 mmHg 65%
    08:00 +27°C° 0 mm 1 mps 760 mmHg 60%
    09:00 +29°C° 0 mm 1 mps 761 mmHg 54%
    10:00 +31°C° 0 mm 1 mps 760 mmHg 48%
    11:00 +32°C° 0 mm 1 mps 760 mmHg 42%
    12:00 +35°C° 0 mm 2 mps 760 mmHg 36%
    13:00 +35°C° 0 mm 2 mps 759 mmHg 34%
    14:00 +36°C° 0 mm 2 mps 758 mmHg 33%
    15:00 +36°C° 0 mm 2 mps 758 mmHg 31%
    16:00 +35°C° 0 mm 2 mps 758 mmHg 34%
    17:00 +34°C° 0 mm 2 mps 758 mmHg 36%
    18:00 +32°C° 0 mm 2 mps 758 mmHg 39%
    19:00 +31°C° 0 mm 2 mps 758 mmHg 43%
    20:00 +30°C° 0 mm 2 mps 758 mmHg 48%
    21:00 +29°C° 0 mm 2 mps 758 mmHg 52%
    22:00 +28°C° 0 mm 2 mps 758 mmHg 56%
    23:00 +27°C° 0 mm 2 mps 758 mmHg 59%
    Show more